sat.trackr.live / text

‹ back to catalog

STARLINK-35692

NORAD 66513 · 2025-263AE

PAYLOAD ACTIVE UNKNOWN

§ Identity

Operator
Country
US
Launch date
2025-11-15
Launch site
AFETR
Launch vehicle
Mass (kg)
RCS (m²)

Purposes: comms

External: N2YO · Heavens-Above · Gunter

§ Orbital elements

Epoch: 2026-05-24T20:13:02.680896Z

Period
94.26 min
Inclination
42.9971°
Eccentricity
0.0001334
Mean motion
15.27608960 rev/d
Perigee alt
482.0 km
Apogee alt
483.9 km
Semi-major
6,861.1 km
B*
9.6037e-4
RAAN
280.7803°
Arg perigee
282.5236°
Mean anomaly
77.5466°
Rev number
3,054

§ Raw data

STARLINK-356921 66513U 25263AE  26144.84239214  .00026283  00000+0  96037-3 0  99972 66513  42.9971 280.7803 0001334 282.5236  77.5466 15.27608960 30543

JSON: /api/v1/satellites/66513 · /tle

For live sub-satellite position, see the globe view (requires WebGL).

§ Visibility from observer

Set your observer location to see the next 7 days of passes ≥ 10°. The values pass through the URL so the page stays shareable.

No JS? Fill the form by hand. The geolocation button needs JavaScript.